Home   Weather   19°19'N, 99°04'W   Past weeks
Flag for Mexico

Past Weather in 19°19'N, 99°04'W, Mexico — Yesterday and Last 2 Weeks

Now
70 °F

Mostly cloudy.


Feels Like: 70 °F
Forecast: 77 / 54 °F
Wind: 6 mph from Southwest

Location: Mexico City / Licenci

Current Time: Feb 22, 2019 at 8:58:13 pm

Latest Report: Feb 22, 2019 at 7:45 pm


Visibility: 10 mi

Pressure: 30.28 "Hg

Humidity: 29%

Dew Point: 36 °F

Location of 19°19'N, 99°04'WLocation

Past Weather in 19°19'N, 99°04'W — Graph

°F

19°19'N, 99°04'W Temperature Yesterday

Maximum temperature yesterday: 79 °F (at 2:45 pm)
Minimum temperature yesterday: 57 °F (at 3:45 am)
Average temperature yesterday: 68 °F

High & Low Weather Summary for the Past Weeks

 TemperatureHumidityPressure
High86 °F (Feb 18, 1:45 pm)94% (Feb 14, 4:46 am)30.45 "Hg (Feb 14, 4:46 am)
Low45 °F (Feb 9, 5:18 am)5% (Feb 19, 12:45 pm)29.54 "Hg (Feb 18, 2:50 pm)
Average65 °F41%30.14 "Hg
* Reported Feb 7 7:45 pm — Feb 22 7:45 pm, 19°19'N, 99°04'W. Weather by CustomWeather, © 2019

Note: Actual official high and low records may vary slightly from our data, if they occured in-between our weather recording intervals... More about our weather records

Advertising

19°19'N, 99°04'W Weather History for the Previous 24 Hours

Scroll right to see more
 ConditionsComfort  
Time TempWeatherWind HumidityBarometerVisibility
7:45 pm
Fri, Feb 22
70 °FMostly cloudy.6 mph29%30.28 "Hg10 mi
6:45 pm73 °FOvercast.12 mph25%30.24 "Hg10 mi
5:50 pm75 °FMore clouds than sun.13 mph22%29.75 "Hg10 mi
4:45 pm77 °FMore clouds than sun.17 mph19%30.20 "Hg10 mi
3:45 pm79 °FOvercast.6 mph16%30.20 "Hg12 mi
2:45 pm79 °FOvercast.6 mph13%29.65 "Hg12 mi
1:47 pm79 °FPartly sunny.6 mph15%30.24 "Hg12 mi
12:51 pm77 °FPartly sunny.8 mph17%30.27 "Hg12 mi
10:52 am72 °FScattered clouds.2 mph17%30.32 "Hg12 mi
10:04 am68 °FPartly sunny.No wind21%30.33 "Hg10 mi
9:45 am64 °FPartly sunny.2 mph26%30.33 "Hg10 mi
9:22 am63 °FPartly sunny.2 mph30%30.33 "Hg10 mi
8:52 am59 °FScattered clouds.6 mph34%29.82 "Hg10 mi
7:45 am57 °FPassing clouds.2 mph31%30.31 "Hg12 mi
6:47 am54 °FClear.2 mph35%30.29 "Hg12 mi
5:46 am55 °FClear.3 mph36%29.77 "Hg10 mi
4:42 am54 °FPassing clouds.2 mph35%30.26 "Hg10 mi
3:55 am52 °FPassing clouds.5 mph50%30.26 "Hg10 mi
2:45 am59 °FPassing clouds.2 mph34%29.71 "Hg10 mi
1:42 am61 °FPassing clouds.2 mph29%30.26 "Hg10 mi
12:42 am61 °FPassing clouds.3 mph29%30.26 "Hg10 mi
11:46 pm
Thu, Feb 21
63 °FPassing clouds.5 mph27%29.71 "Hg10 mi
10:45 pm64 °FPassing clouds.7 mph26%30.27 "Hg10 mi
9:45 pm66 °FPassing clouds.9 mph22%30.26 "Hg10 mi
8:45 pm66 °FPassing clouds.8 mph22%29.71 "Hg10 mi
Weather by CustomWeather, © 2019

See weather overview